STARLINK-2748, 48694

Orbit data source: Space-Track

STARLINK-2748, 48694 is a payload satellite owned by SpaceX/Seattle (US) in LEO that was launched on Wed, 26 May 2021 UTC via an FALCON 9 launch vehicle from the Air Force Eastern Test Range (AFETR). Payload-class satellites include a variety of spacecraft equipped with specific instruments for various scientific and technological missions. These include communications satellites like Starlink; space stations such as the ISS; scientific satellites like the Hubble; Earth observation satellites from companies like Planet Labs, Umbra, and HawkEye 360; GPS; miniature CubeSats for education and research; and military/defense satellites.

Loading next visibility...
Identifier
48694, 2021-044BJ
Orbit
LEO
Country
Flag of USUS
Related business
Manufacturer
SpaceX/Seattle
Mission
Operational Commercial Communications
Bus & Motor
STARLINK, Unknown motor
Mass
260 kg wet, ~248 kg dry
Launch date (UTC)
2021-05-26 (5 years ago)
Launch vehicle
FALCON 9
Launch site
Air Force Eastern Test Range (AFETR)
Object type
Payload
Rocket body
Debris
Shape & HBR
Box + 1 Pan, 10.1 m
Radar Cross Section
13.562 m², Large (>1 m²)

Expand to show TLE details & history
Last TLE update: 11 hours ago

TLE from 11 hours ago
0 STARLINK-2748
1 48694U 21044BJ  25349.70329765  .00000034  00000-0  21183-4 0  9990
2 48694  53.0554 103.6379 0001340  84.3690 275.7452 15.06399165251535
Epoch: 2025-12-15T16:52Z
TLE epoch observation values (Epoch: 2025-12-15T16:52:44.916Z)
Latitude
-0.00003°
Longitude
125.85267°
Altitude
548.001 km
Speed
7.589 km/s
True Right ascension
06h 54m 33s
True Declination
0° 00' 00"
Sunlit
Object was in full shadow at epoch
Visualization orbit readout
Latitude
Unknown
Longitude
Unknown
Altitude
Unknown
Speed
Unknown
Apparent Right ascension
Unknown
Apparent Declination
Unknown
Sunlit
N/A
Visualization observer readout
Local Sidereal Time
02:28:34
Azimuth
Unknown
Elevation
Unknown
Doppler factor
Unknown
Orbital elements
Apogee altitude
548.413 km
Perigee altitude
546.557 km
Semi-major axis
6,925.622 km
Eccentricity
0.00013
Inclination
53.0554°
RAAN
103.6379°
Arg. of periapsis
84.369°
True anomaly
275.72992°
Mean anomaly
275.7452°
Eccentric anomaly
275.73756°
Mean motion
3.76578 °/min
Orbital period
95.6 mins
BSTAR
0.000021183
Loading maneuver chart data...
Computing Atmospheric mass density...
Loading historical data...
Loading historical data...
Loading historical data...
Loading historical data...
Loading historical data...
Loading historical data...
Loading historical data...

Documentation

Showing up to 5 results
|